TimeCEST,TemperatureF,Dew PointF,Humidity,Sea Level PressureIn,VisibilityMPH,Wind Direction,Wind SpeedMPH,Gust SpeedMPH,PrecipitationIn,Events,Conditions,WindDirDegrees,DateUTC
12:00 AM,80.6,59.0,48,30.09,-9999.0,West,6.9,-,N/A,,Clear,280,2013-09-01 22:00:00
12:30 AM,78.8,59.0,51,30.09,-9999.0,Variable,2.3,-,N/A,,Clear,0,2013-09-01 22:30:00
1:00 AM,77.0,59.0,54,30.09,-9999.0,Variable,2.3,-,N/A,,Clear,0,2013-09-01 23:00:00
4:30 AM,71.6,59.0,64,30.09,-9999.0,Calm,Calm,-,N/A,,Clear,0,2013-09-02 02:30:00
5:00 AM,71.6,59.0,64,30.09,-9999.0,East,2.3,-,N/A,,Clear,100,2013-09-02 03:00:00
5:30 AM,69.8,59.0,68,30.09,-9999.0,Calm,Calm,-,N/A,,Clear,0,2013-09-02 03:30:00
6:00 AM,71.6,59.0,64,30.09,-9999.0,Variable,2.3,-,N/A,,Clear,0,2013-09-02 04:00:00
6:30 AM,69.8,59.0,68,30.09,-9999.0,NE,3.5,-,N/A,,Clear,40,2013-09-02 04:30:00
7:00 AM,69.8,59.0,68,30.09,-9999.0,Variable,1.2,-,N/A,,Clear,0,2013-09-02 05:00:00
7:30 AM,69.8,59.0,68,30.09,-9999.0,NE,3.5,-,N/A,,Clear,40,2013-09-02 05:30:00
8:00 AM,68.0,59.0,73,30.09,-9999.0,NNE,3.5,-,N/A,,Clear,30,2013-09-02 06:00:00
8:30 AM,68.0,60.8,78,30.09,-9999.0,NE,3.5,-,N/A,,Clear,40,2013-09-02 06:30:00
9:00 AM,69.8,60.8,73,30.09,-9999.0,NE,4.6,-,N/A,,Clear,40,2013-09-02 07:00:00
9:30 AM,75.2,60.8,61,30.12,-9999.0,ENE,5.8,-,N/A,,Clear,60,2013-09-02 07:30:00
10:00 AM,78.8,59.0,51,30.12,-9999.0,East,11.5,-,N/A,,Clear,90,2013-09-02 08:00:00
10:30 AM,80.6,55.4,42,30.12,-9999.0,East,12.7,-,N/A,,Clear,90,2013-09-02 08:30:00
11:00 AM,82.4,55.4,39,30.12,-9999.0,East,15.0,-,N/A,,Clear,100,2013-09-02 09:00:00
11:30 AM,82.4,55.4,39,30.12,-9999.0,East,11.5,-,N/A,,Clear,100,2013-09-02 09:30:00
12:00 PM,82.4,55.4,39,30.12,-9999.0,East,12.7,-,N/A,,Clear,90,2013-09-02 10:00:00
12:30 PM,86.0,55.4,35,30.12,-9999.0,East,12.7,-,N/A,,Clear,90,2013-09-02 10:30:00
1:00 PM,86.0,53.6,33,30.12,-9999.0,East,11.5,-,N/A,,Clear,90,2013-09-02 11:00:00
1:30 PM,87.8,50.0,27,30.12,-9999.0,East,12.7,-,N/A,,Clear,100,2013-09-02 11:30:00
2:00 PM,89.6,50.0,26,30.09,-9999.0,East,11.5,-,N/A,,Clear,90,2013-09-02 12:00:00
2:30 PM,89.6,50.0,26,30.09,-9999.0,East,10.4,-,N/A,,Clear,80,2013-09-02 12:30:00
3:00 PM,91.4,48.2,23,30.09,-9999.0,East,10.4,-,N/A,,Clear,80,2013-09-02 13:00:00
3:30 PM,91.4,48.2,23,30.09,-9999.0,ESE,15.0,-,N/A,,Clear,120,2013-09-02 13:30:00
4:00 PM,91.4,46.4,21,30.06,-9999.0,East,13.8,-,N/A,,Clear,90,2013-09-02 14:00:00
4:30 PM,91.4,46.4,21,30.06,-9999.0,East,10.4,-,N/A,,Clear,90,2013-09-02 14:30:00
5:00 PM,91.4,46.4,21,30.06,-9999.0,ESE,16.1,-,N/A,,Clear,120,2013-09-02 15:00:00
5:30 PM,93.2,44.6,19,30.06,-9999.0,East,12.7,-,N/A,,Clear,100,2013-09-02 15:30:00
6:00 PM,91.4,44.6,20,30.06,-9999.0,ESE,8.1,-,N/A,,Clear,120,2013-09-02 16:00:00
6:30 PM,93.2,42.8,17,30.06,-9999.0,ESE,10.4,-,N/A,,Clear,110,2013-09-02 16:30:00
7:00 PM,91.4,42.8,18,30.06,-9999.0,SE,9.2,-,N/A,,Clear,130,2013-09-02 17:00:00
7:30 PM,91.4,41.0,17,30.06,-9999.0,SSE,8.1,-,N/A,,Clear,150,2013-09-02 17:30:00
8:00 PM,89.6,42.8,20,30.06,-9999.0,SE,6.9,-,N/A,,Clear,130,2013-09-02 18:00:00
8:30 PM,87.8,46.4,24,30.06,-9999.0,SE,3.5,-,N/A,,Clear,140,2013-09-02 18:30:00
9:00 PM,82.4,48.2,30,30.06,-9999.0,SSE,5.8,-,N/A,,Clear,150,2013-09-02 19:00:00
9:30 PM,80.6,46.4,30,30.06,-9999.0,South,4.6,-,N/A,,Clear,170,2013-09-02 19:30:00
10:00 PM,78.8,48.2,34,30.06,-9999.0,SSE,4.6,-,N/A,,Clear,160,2013-09-02 20:00:00
10:30 PM,78.8,48.2,34,30.09,-9999.0,SSE,2.3,-,N/A,,Clear,160,2013-09-02 20:30:00
11:00 PM,78.8,51.8,39,30.09,-9999.0,South,2.3,-,N/A,,Clear,170,2013-09-02 21:00:00
11:30 PM,77.0,53.6,44,30.09,-9999.0,South,3.5,-,N/A,,Clear,170,2013-09-02 21:30:00